TimeCST,TemperatureF,Dew PointF,Humidity,Sea Level PressureIn,VisibilityMPH,Wind Direction,Wind SpeedMPH,Gust SpeedMPH,PrecipitationIn,Events,Conditions,WindDirDegrees,DateUTC
12:53 AM,37.9,32.0,79,30.21,10.0,SW,8.1,-,N/A,,Overcast,220,2013-01-06 06:53:00
1:53 AM,37.9,33.1,83,30.19,10.0,SW,5.8,-,N/A,,Overcast,220,2013-01-06 07:53:00
2:53 AM,37.0,34.0,89,30.18,9.0,SW,8.1,-,N/A,,Scattered Clouds,230,2013-01-06 08:53:00
3:53 AM,35.6,33.8,93,30.16,8.0,SW,8.1,-,N/A,,Partly Cloudy,220,2013-01-06 09:53:00
4:53 AM,35.1,33.1,92,30.16,5.0,SSW,6.9,-,N/A,,Clear,210,2013-01-06 10:53:00
5:41 AM,35.6,33.8,93,30.15,4.0,SSW,6.9,-,N/A,,Scattered Clouds,210,2013-01-06 11:41:00
5:50 AM,35.6,33.8,93,30.15,4.0,SW,9.2,-,N/A,,Mostly Cloudy,220,2013-01-06 11:50:00
5:53 AM,35.1,33.1,92,30.16,4.0,SSW,6.9,-,N/A,,Mostly Cloudy,200,2013-01-06 11:53:00
6:18 AM,33.8,33.8,100,30.16,4.0,SW,6.9,-,N/A,,Mostly Cloudy,220,2013-01-06 12:18:00
6:33 AM,33.8,33.8,100,30.16,4.0,SW,6.9,-,N/A,,Scattered Clouds,220,2013-01-06 12:33:00
6:53 AM,34.0,32.0,92,30.18,5.0,WSW,8.1,-,N/A,,Clear,240,2013-01-06 12:53:00
7:53 AM,34.0,32.0,92,30.20,5.0,WSW,8.1,-,N/A,,Clear,240,2013-01-06 13:53:00
8:53 AM,37.9,33.1,83,30.22,8.0,WSW,10.4,-,N/A,,Clear,250,2013-01-06 14:53:00
9:53 AM,41.0,33.1,73,30.22,10.0,WNW,8.1,-,N/A,,Clear,290,2013-01-06 15:53:00
10:37 AM,39.2,30.2,70,30.23,10.0,WNW,10.4,20.7,N/A,,Mostly Cloudy,300,2013-01-06 16:37:00
10:53 AM,39.9,30.0,68,30.24,10.0,NW,10.4,18.4,N/A,,Mostly Cloudy,310,2013-01-06 16:53:00
11:53 AM,39.0,28.0,65,30.24,10.0,NW,6.9,-,N/A,,Overcast,320,2013-01-06 17:53:00
12:53 PM,39.0,28.0,65,30.24,9.0,NW,8.1,-,N/A,,Overcast,310,2013-01-06 18:53:00
1:53 PM,36.0,25.0,64,30.28,9.0,NW,8.1,-,N/A,,Overcast,310,2013-01-06 19:53:00
2:53 PM,37.0,25.0,62,30.30,10.0,NW,9.2,-,N/A,,Mostly Cloudy,320,2013-01-06 20:53:00
3:13 PM,39.2,24.8,56,30.30,10.0,NW,8.1,-,N/A,,Scattered Clouds,320,2013-01-06 21:13:00
3:53 PM,37.0,24.1,59,30.32,10.0,NNW,6.9,-,N/A,,Clear,330,2013-01-06 21:53:00
4:53 PM,34.0,24.1,67,30.35,10.0,NNW,3.5,-,N/A,,Clear,340,2013-01-06 22:53:00
5:53 PM,33.1,24.1,70,30.36,10.0,Calm,Calm,-,N/A,,Clear,0,2013-01-06 23:53:00
6:53 PM,30.9,23.0,72,30.38,10.0,Calm,Calm,-,N/A,,Clear,0,2013-01-07 00:53:00
7:53 PM,27.0,21.9,81,30.39,9.0,Calm,Calm,-,N/A,,Clear,0,2013-01-07 01:53:00
8:53 PM,26.1,23.0,88,30.40,9.0,Calm,Calm,-,N/A,,Clear,0,2013-01-07 02:53:00
9:53 PM,24.1,19.9,84,30.40,8.0,Calm,Calm,-,N/A,,Clear,0,2013-01-07 03:53:00
10:53 PM,24.1,21.9,91,30.41,6.0,Calm,Calm,-,N/A,,Clear,0,2013-01-07 04:53:00
11:53 PM,23.0,19.9,88,30.42,4.0,Calm,Calm,-,N/A,,Clear,0,2013-01-07 05:53:00